When you browse on this site, cookies collect data to enhance your experience and personalize the content and advertising you see.
Visit our Privacy Policy to learn more. By continuing to use the site, you agree to this use of cookies and data.
  • en France
  • Liste des pays
  • À 7 jours
  • Température de l'eau
  • Carte satellitaire
  • Carte météo
  • Widgets météo
  • user-avatar
    Se connecter

    Météo par heure à Seredichi

    Ce jour, 27 Mai, Lundi

    Heure Température Précipitation Vent Pression Humidité
    00:00 +10°C° 0 mm 3 m/s 738 mmHg 93%
    01:00 +10°C° 0 mm 3 m/s 738 mmHg 94%
    02:00 +9°C° 0 mm 3 m/s 738 mmHg 95%
    03:00 +9°C° 0 mm 3 m/s 739 mmHg 94%
    04:00 +9°C° 0 mm 3 m/s 739 mmHg 94%
    05:00 +10°C° 0 mm 3 m/s 740 mmHg 93%
    06:00 +11°C° 0 mm 3 m/s 740 mmHg 86%
    07:00 +13°C° 0 mm 3 m/s 740 mmHg 78%
    08:00 +15°C° 0 mm 4 m/s 740 mmHg 71%
    09:00 +17°C° 0 mm 4 m/s 741 mmHg 67%
    10:00 +18°C° 0 mm 4 m/s 741 mmHg 63%
    11:00 +20°C° 0 mm 4 m/s 741 mmHg 59%
    12:00 +20°C° 0 mm 4 m/s 741 mmHg 58%
    13:00 +21°C° 0 mm 4 m/s 741 mmHg 58%
    14:00 +22°C° 0 mm 4 m/s 741 mmHg 57%
    15:00 +22°C° 0 mm 4 m/s 741 mmHg 61%
    16:00 +21°C° 0 mm 4 m/s 741 mmHg 64%
    17:00 +21°C° 0 mm 3 m/s 742 mmHg 68%
    18:00 +20°C° 0 mm 3 m/s 742 mmHg 74%
    19:00 +18°C° 0 mm 3 m/s 742 mmHg 81%
    20:00 +17°C° 0 mm 2 m/s 742 mmHg 88%
    21:00 +16°C° 0 mm 3 m/s 742 mmHg 90%
    22:00 +14°C° 0 mm 3 m/s 742 mmHg 91%
    23:00 +14°C° 0 mm 3 m/s 742 mmHg 93%

    Demain, 28 Mai, Mardi

    Heure Température Précipitation Vent Pression Humidité
    00:00 +14°C° 0 mm 3 m/s 742 mmHg 94%
    01:00 +14°C° 0 mm 3 m/s 743 mmHg 94%
    02:00 +13°C° 0 mm 3 m/s 743 mmHg 95%
    03:00 +14°C° 0 mm 3 m/s 743 mmHg 94%
    04:00 +14°C° 0 mm 3 m/s 743 mmHg 94%
    05:00 +16°C° 0 mm 3 m/s 743 mmHg 93%
    06:00 +18°C° 0 mm 3 m/s 743 mmHg 88%
    07:00 +20°C° 0 mm 3 m/s 744 mmHg 83%
    08:00 +21°C° 0 mm 3 m/s 744 mmHg 78%
    09:00 +23°C° 0.1 mm 4 m/s 744 mmHg 73%
    10:00 +25°C° 0.1 mm 4 m/s 744 mmHg 68%
    11:00 +26°C° 0.1 mm 4 m/s 744 mmHg 63%
    12:00 +26°C° 0.2 mm 5 m/s 744 mmHg 64%
    13:00 +26°C° 0.2 mm 5 m/s 744 mmHg 65%
    14:00 +26°C° 0.2 mm 5 m/s 744 mmHg 65%
    15:00 +26°C° 0 mm 4 m/s 744 mmHg 67%
    16:00 +26°C° 0 mm 4 m/s 744 mmHg 69%
    17:00 +26°C° 0 mm 3 m/s 744 mmHg 70%
    18:00 +24°C° 0 mm 3 m/s 744 mmHg 76%
    19:00 +21°C° 0 mm 3 m/s 744 mmHg 82%
    20:00 +20°C° 0 mm 3 m/s 744 mmHg 88%
    21:00 +19°C° 0 mm 3 m/s 744 mmHg 89%
    22:00 +18°C° 0 mm 3 m/s 744 mmHg 91%
    23:00 +18°C° 0 mm 3 m/s 745 mmHg 93%

    Après-demain, 29 Mai, Mercredi

    Heure Température Précipitation Vent Pression Humidité
    00:00 +18°C° 0 mm 3 m/s 745 mmHg 92%
    01:00 +17°C° 0 mm 3 m/s 745 mmHg 92%
    02:00 +17°C° 0 mm 3 m/s 745 mmHg 92%
    03:00 +17°C° 0 mm 3 m/s 745 mmHg 91%
    04:00 +18°C° 0 mm 3 m/s 745 mmHg 90%
    05:00 +18°C° 0 mm 3 m/s 745 mmHg 88%
    06:00 +20°C° 0 mm 4 m/s 745 mmHg 83%
    07:00 +21°C° 0 mm 4 m/s 745 mmHg 77%
    08:00 +23°C° 0 mm 5 m/s 745 mmHg 71%
    09:00 +25°C° 0 mm 5 m/s 745 mmHg 67%
    10:00 +26°C° 0 mm 5 m/s 745 mmHg 64%
    11:00 +27°C° 0 mm 6 m/s 745 mmHg 60%
    12:00 +27°C° 0 mm 6 m/s 745 mmHg 60%
    13:00 +27°C° 0 mm 6 m/s 745 mmHg 60%
    14:00 +28°C° 0 mm 6 m/s 745 mmHg 59%
    15:00 +27°C° 0.1 mm 5 m/s 745 mmHg 63%
    16:00 +27°C° 0.1 mm 4 m/s 745 mmHg 66%
    17:00 +26°C° 0.1 mm 4 m/s 745 mmHg 70%
    18:00 +25°C° 0 mm 3 m/s 745 mmHg 76%
    19:00 +22°C° 0 mm 3 m/s 745 mmHg 83%
    20:00 +20°C° 0 mm 3 m/s 745 mmHg 89%
    21:00 +20°C° 0 mm 3 m/s 745 mmHg 91%
    22:00 +19°C° 0 mm 3 m/s 745 mmHg 92%
    23:00 +19°C° 0 mm 3 m/s 746 mmHg 94%

    30 Mai, Jeudi

    Heure Température Précipitation Vent Pression Humidité
    00:00 +18°C° 0 mm 3 m/s 746 mmHg 94%
    01:00 +18°C° 0 mm 3 m/s 746 mmHg 94%
    02:00 +18°C° 0 mm 3 m/s 746 mmHg 95%
    03:00 +18°C° 0.2 mm 3 m/s 746 mmHg 94%
    04:00 +18°C° 0.2 mm 3 m/s 746 mmHg 93%
    05:00 +18°C° 0.2 mm 3 m/s 746 mmHg 93%
    06:00 +20°C° 0.1 mm 3 m/s 746 mmHg 88%
    07:00 +22°C° 0.1 mm 4 m/s 746 mmHg 84%
    08:00 +23°C° 0.1 mm 4 m/s 746 mmHg 80%
    09:00 +25°C° 0.1 mm 5 m/s 746 mmHg 74%
    10:00 +26°C° 0.1 mm 5 m/s 746 mmHg 69%
    11:00 +27°C° 0.1 mm 6 m/s 745 mmHg 63%
    12:00 +27°C° 0.1 mm 6 m/s 745 mmHg 62%
    13:00 +28°C° 0.1 mm 6 m/s 745 mmHg 62%
    14:00 +28°C° 0.1 mm 6 m/s 745 mmHg 61%
    15:00 +27°C° 0 mm 5 m/s 745 mmHg 64%
    16:00 +27°C° 0 mm 5 m/s 744 mmHg 67%
    17:00 +27°C° 0 mm 4 m/s 744 mmHg 70%
    18:00 +25°C° 0 mm 4 m/s 744 mmHg 75%
    19:00 +24°C° 0 mm 3 m/s 744 mmHg 81%
    20:00 +21°C° 0 mm 3 m/s 745 mmHg 87%
    21:00 +20°C° 0.2 mm 3 m/s 745 mmHg 89%
    22:00 +20°C° 0.2 mm 2 m/s 745 mmHg 92%
    23:00 +19°C° 0.2 mm 2 m/s 745 mmHg 94%

    31 Mai, Vendredi

    Heure Température Précipitation Vent Pression Humidité
    00:00 +19°C° 0.2 mm 2 m/s 745 mmHg 94%
    01:00 +19°C° 0.2 mm 2 m/s 745 mmHg 94%
    02:00 +18°C° 0.2 mm 2 m/s 745 mmHg 94%
    03:00 +19°C° 0 mm 2 m/s 745 mmHg 94%
    04:00 +19°C° 0 mm 2 m/s 745 mmHg 93%
    05:00 +19°C° 0 mm 2 m/s 744 mmHg 93%
    06:00 +20°C° 0.2 mm 3 m/s 744 mmHg 89%
    07:00 +22°C° 0.2 mm 3 m/s 744 mmHg 85%
    08:00 +24°C° 0.2 mm 3 m/s 744 mmHg 80%
    09:00 +25°C° 1.7 mm 3 m/s 744 mmHg 78%
    10:00 +26°C° 1.7 mm 3 m/s 744 mmHg 76%
    11:00 +27°C° 1.7 mm 3 m/s 744 mmHg 73%
    12:00 +27°C° 0.8 mm 3 m/s 744 mmHg 71%
    13:00 +27°C° 0.8 mm 2 m/s 744 mmHg 69%
    14:00 +27°C° 0.8 mm 2 m/s 744 mmHg 67%
    15:00 +27°C° 0.8 mm 2 m/s 744 mmHg 68%
    16:00 +27°C° 0.8 mm 1 m/s 744 mmHg 70%
    17:00 +27°C° 0.8 mm 1 m/s 744 mmHg 71%
    18:00 +25°C° 0.3 mm 1 m/s 744 mmHg 76%
    19:00 +24°C° 0.3 mm 1 m/s 744 mmHg 80%
    20:00 +22°C° 0.3 mm 1 m/s 744 mmHg 85%
    21:00 +22°C° 0 mm 1 m/s 743 mmHg 86%
    22:00 +21°C° 0 mm 1 m/s 743 mmHg 88%
    23:00 +19°C° 0 mm 2 m/s 743 mmHg 90%

    1 Juin, Samedi

    Heure Température Précipitation Vent Pression Humidité
    00:00 +19°C° 0.5 mm 2 m/s 743 mmHg 91%
    01:00 +19°C° 0.5 mm 2 m/s 743 mmHg 92%
    02:00 +19°C° 0.5 mm 1 m/s 743 mmHg 93%
    03:00 +19°C° 0.1 mm 2 m/s 743 mmHg 93%
    04:00 +19°C° 0.1 mm 2 m/s 743 mmHg 93%
    05:00 +19°C° 0.1 mm 2 m/s 743 mmHg 93%
    06:00 +21°C° 0.1 mm 2 m/s 743 mmHg 88%
    07:00 +22°C° 0.1 mm 3 m/s 743 mmHg 83%
    08:00 +25°C° 0.1 mm 3 m/s 743 mmHg 78%
    09:00 +26°C° 0 mm 3 m/s 743 mmHg 72%
    10:00 +27°C° 0 mm 4 m/s 742 mmHg 65%
    11:00 +28°C° 0 mm 4 m/s 742 mmHg 59%
    12:00 +28°C° 0.2 mm 4 m/s 742 mmHg 60%
    13:00 +28°C° 0.2 mm 4 m/s 742 mmHg 61%
    14:00 +28°C° 0.2 mm 4 m/s 742 mmHg 62%
    15:00 +27°C° 0.5 mm 3 m/s 742 mmHg 67%
    16:00 +27°C° 0.5 mm 3 m/s 741 mmHg 73%
    17:00 +26°C° 0.5 mm 2 m/s 741 mmHg 79%
    18:00 +25°C° 0.4 mm 2 m/s 741 mmHg 81%
    19:00 +23°C° 0.4 mm 2 m/s 741 mmHg 82%
    20:00 +22°C° 0.4 mm 1 m/s 741 mmHg 84%
    21:00 +20°C° 1.5 mm 2 m/s 741 mmHg 87%
    22:00 +19°C° 1.5 mm 2 m/s 741 mmHg 89%
    23:00 +19°C° 1.5 mm 2 m/s 741 mmHg 92%
    Voir plus